Weather History for Victorville, CA

Change the Weather History Date:

Thursday, January 24, 2013

  Actual Average (KSBD) Record (KSBD)
Temperature  
Mean Temperature 50 °F -  
Max Temperature 57 °F 67 °F 75 °F (2011)
Min Temperature 44 °F 40 °F 35 °F (2011)
Degree Days  
Heating Degree Days 14    
Moisture  
Dew Point 42 °F    
Average Humidity 75    
Maximum Humidity 93    
Minimum Humidity 38    
Precipitation  
Precipitation 0.00 in - - ()
Sea Level Pressure  
Sea Level Pressure 30.18 in    
Wind  
Wind Speed 6 mph (West)    
Max Wind Speed 17 mph    
Max Gust Speed 21 mph    
Visibility 10 miles    
Events Rain    
Averages and records for this station are not official NWS values.
T = Trace of Precipitation, MM = Missing Value Source: NWS Daily Summary

Daily Weather History Graph

Daily Weather History Graph

Search for Another Location

Airport:

Trip Planner

Search our weather history database for the weather conditions in past years. The results will help you decide how hot, cold, wet, or windy it might be!

Date:

Astronomy

Jan. 24, 2013 Rise Set
Actual Time 6:52 AM PST 5:11 PM PST
Civil Twilight 6:25 AM PST 5:38 PM PST
Nautical Twilight 5:55 AM PST 6:08 PM PST
Astronomical Twilight 5:25 AM PST 6:38 PM PST
Moon 3:18 PM PST (1/24) 4:51 AM PST (1/24)
Length of Visible Light 11h 12m
Length of Day
10h 18m
Waxing Gibbous, 95% of the Moon is Illuminated
Jan 24
Waxing Gibbous
Jan 26
Full
Feb 3
Last Quarter
Feb 9
New
Feb 17
First Quarter

Hourly Weather History & Observations

Time (PST) Temp. Windchill Dew Point Humidity Pressure Visibility Wind Dir Wind Speed Gust Speed Precip Events Conditions
12:15 AM 55.4 °F - 30.2 °F 38% 30.14 in 10.0 mi South 10.4 mph - N/A   Mostly Cloudy
12:35 AM 53.6 °F - 30.2 °F 41% 30.13 in 10.0 mi SSE 6.9 mph - N/A   Mostly Cloudy
12:55 AM 53.6 °F - 33.8 °F 47% 30.13 in 10.0 mi South 8.1 mph - N/A   Scattered Clouds
1:15 AM 53.6 °F - 32.0 °F 44% 30.14 in 10.0 mi SSE 8.1 mph - N/A   Scattered Clouds
1:35 AM 53.6 °F - 32.0 °F 44% 30.14 in 10.0 mi South 9.2 mph - N/A   Scattered Clouds
1:55 AM 53.6 °F - 32.0 °F 44% 30.14 in 10.0 mi SSE 8.1 mph - N/A   Scattered Clouds
2:15 AM 53.6 °F - 32.0 °F 44% 30.14 in 10.0 mi ESE 6.9 mph - N/A   Overcast
2:55 AM 53.6 °F - 33.8 °F 47% 30.14 in 10.0 mi East 8.1 mph - N/A   Overcast
3:15 AM 53.6 °F - 35.6 °F 51% 30.12 in 10.0 mi SE 17.3 mph 20.7 mph N/A   Overcast
3:35 AM 53.6 °F - 35.6 °F 51% 30.11 in 10.0 mi SSE 13.8 mph - N/A   Overcast
4:15 AM 53.6 °F - 39.2 °F 58% 30.11 in 10.0 mi SE 16.1 mph - N/A   Overcast
4:35 AM 53.6 °F - 39.2 °F 58% 30.12 in 10.0 mi SE 11.5 mph - N/A   Overcast
4:55 AM 53.6 °F - 39.2 °F 58% 30.12 in 10.0 mi South 6.9 mph - N/A   Overcast
5:15 AM 51.8 °F - 42.8 °F 71% 30.12 in 10.0 mi South 8.1 mph - N/A Rain Light Rain
5:35 AM 51.8 °F - 42.8 °F 71% 30.13 in 10.0 mi South 11.5 mph - N/A Rain Light Rain
5:55 AM 51.8 °F - 42.8 °F 71% 30.13 in 10.0 mi South 8.1 mph - N/A   Light Drizzle
6:15 AM 51.8 °F - 44.6 °F 76% 30.14 in 10.0 mi South 6.9 mph - N/A   Overcast
6:35 AM 50.0 °F - 44.6 °F 82% 30.15 in 10.0 mi SE 6.9 mph - N/A   Mostly Cloudy
6:55 AM 50.0 °F - 44.6 °F 82% 30.16 in 10.0 mi Calm Calm - N/A Rain Rain
7:15 AM 48.2 °F - 44.6 °F 87% 30.16 in 10.0 mi Calm Calm - N/A Rain Light Rain
7:35 AM 48.2 °F - 44.6 °F 87% 30.16 in 10.0 mi Calm Calm - N/A Rain Light Rain
7:55 AM 48.2 °F - 46.4 °F 93% 30.16 in 10.0 mi Calm Calm - N/A Rain Light Rain
8:15 AM 48.2 °F - 46.4 °F 93% 30.18 in 10.0 mi Calm Calm - N/A   Light Drizzle
8:35 AM 50.0 °F - 46.4 °F 87% 30.18 in 10.0 mi Calm Calm - N/A   Overcast
8:55 AM 50.0 °F - 46.4 °F 87% 30.20 in 10.0 mi Calm Calm - N/A Rain Light Rain
9:15 AM 48.2 °F - 46.4 °F 93% 30.21 in 10.0 mi WSW 4.6 mph - N/A Rain Light Rain
9:35 AM 46.4 °F 42.4 °F 42.8 °F 87% 30.23 in 10.0 mi SW 8.1 mph - N/A Rain Light Rain
9:55 AM 46.4 °F 42.4 °F 41.0 °F 81% 30.24 in 10.0 mi SW 8.1 mph - N/A Rain Light Rain
10:15 AM 44.6 °F 42.2 °F 41.0 °F 87% 30.24 in 10.0 mi WSW 4.6 mph - N/A Rain Light Rain
10:35 AM 46.4 °F - 39.2 °F 76% 30.22 in 10.0 mi Calm Calm - N/A Rain Light Rain
10:55 AM 46.4 °F - 41.0 °F 81% 30.23 in 10.0 mi Calm Calm - N/A Rain Light Rain
11:15 AM 46.4 °F - 42.8 °F 87% 30.22 in 10.0 mi Calm Calm - N/A Rain Light Rain
11:35 AM 46.4 °F 45.2 °F 42.8 °F 87% 30.21 in 10.0 mi SW 3.5 mph - N/A Rain Light Rain
11:55 AM 48.2 °F - 44.6 °F 87% 30.19 in 10.0 mi Calm Calm - N/A   Mostly Cloudy
12:15 PM 51.8 °F - 46.4 °F 82% 30.19 in 10.0 mi Calm Calm - N/A   Mostly Cloudy
12:35 PM 51.8 °F - 46.4 °F 82% 30.18 in 10.0 mi Calm Calm - N/A   Unknown
12:55 PM 53.6 °F - 46.4 °F 77% 30.18 in 10.0 mi NNW 3.5 mph - N/A   Unknown
1:15 PM 53.6 °F - 48.2 °F 82% 30.18 in 10.0 mi Calm Calm - N/A   Unknown
1:35 PM 55.4 °F - 46.4 °F 72% 30.18 in 10.0 mi Calm Calm - N/A   Unknown
1:55 PM 55.4 °F - 46.4 °F 72% 30.17 in 10.0 mi Calm Calm - N/A   Unknown
2:15 PM 57.2 °F - 48.2 °F 72% 30.17 in 10.0 mi NE 4.6 mph - N/A   Unknown
2:55 PM 57.2 °F - 48.2 °F 72% 30.18 in 10.0 mi NNE 3.5 mph - N/A   Unknown
3:15 PM 55.4 °F - 48.2 °F 77% 30.17 in 10.0 mi North 8.1 mph - N/A   Overcast
3:35 PM 55.4 °F - 46.4 °F 72% 30.16 in 10.0 mi North 8.1 mph - N/A   Mostly Cloudy
3:55 PM 55.4 °F - 46.4 °F 72% 30.17 in 10.0 mi North 9.2 mph - N/A   Overcast
4:15 PM 55.4 °F - 46.4 °F 72% 30.18 in 10.0 mi North 9.2 mph - N/A   Overcast
4:35 PM 55.4 °F - 46.4 °F 72% 30.18 in 10.0 mi North 8.1 mph - N/A   Overcast
4:55 PM 53.6 °F - 46.4 °F 77% 30.18 in 10.0 mi NNW 6.9 mph - N/A   Overcast
5:15 PM 53.6 °F - 46.4 °F 77% 30.19 in 10.0 mi NW 4.6 mph - N/A   Mostly Cloudy
5:35 PM 51.8 °F - 46.4 °F 82% 30.19 in 10.0 mi NNW 5.8 mph - N/A   Mostly Cloudy
5:55 PM 51.8 °F - 44.6 °F 76% 30.20 in 10.0 mi North 6.9 mph - N/A   Scattered Clouds
6:15 PM 51.8 °F - 44.6 °F 76% 30.20 in 10.0 mi NNW 5.8 mph - N/A   Clear
6:35 PM 50.0 °F - 42.8 °F 76% 30.20 in 10.0 mi NNW 5.8 mph - N/A   Clear
6:55 PM 48.2 °F - 42.8 °F 82% 30.19 in 10.0 mi NW 6.9 mph - N/A   Clear
7:15 PM 48.2 °F - 42.8 °F 82% 30.19 in 10.0 mi NW 5.8 mph - N/A   Clear
7:35 PM 46.4 °F 45.2 °F 44.6 °F 93% 30.20 in 10.0 mi WNW 3.5 mph - N/A   Clear
7:55 PM 46.4 °F 43.5 °F 42.8 °F 87% 30.20 in 10.0 mi NNW 5.8 mph - N/A   Clear
8:15 PM 46.4 °F 43.5 °F 42.8 °F 87% 30.21 in 10.0 mi WNW 5.8 mph - N/A   Clear
8:35 PM 44.6 °F - 42.8 °F 93% 30.22 in 10.0 mi Calm Calm - N/A   Clear
8:55 PM 44.6 °F 43.1 °F 41.0 °F 87% 30.22 in 10.0 mi West 3.5 mph - N/A   Clear
9:15 PM 44.6 °F - 39.2 °F 81% 30.22 in 10.0 mi Calm Calm - N/A   Clear
9:35 PM 44.6 °F - 39.2 °F 81% 30.22 in 10.0 mi Calm Calm - N/A   Clear
9:55 PM 44.6 °F - 39.2 °F 81% 30.23 in 10.0 mi Calm Calm - N/A   Clear
10:15 PM 44.6 °F 43.1 °F 39.2 °F 81% 30.23 in 10.0 mi West 3.5 mph - N/A   Clear
10:35 PM 44.6 °F - 39.2 °F 81% 30.23 in 10.0 mi Calm Calm - N/A   Scattered Clouds
10:55 PM 46.4 °F 45.2 °F 39.2 °F 76% 30.22 in 10.0 mi NNW 3.5 mph - N/A   Scattered Clouds
11:15 PM 44.6 °F - 39.2 °F 81% 30.22 in 10.0 mi Calm Calm - N/A   Scattered Clouds
11:35 PM 44.6 °F - 39.2 °F 81% 30.23 in 10.0 mi Calm Calm - N/A   Mostly Cloudy
11:55 PM 44.6 °F - 39.2 °F 81% 30.23 in 10.0 mi Calm Calm - N/A   Overcast